Location: Edinburgh
(55.9500°N, 3.1600°W)
Time: 17:49:51
(UTC+01:00)

ISS - Pass Details

Date: 07 October 2017
Orbit: 401 x 408 km, 51.6° (Epoch: 19 October)

Event Time Altitude Azimuth Distance (km) Brightness Sun altitude
Rises 21:02:51 0° 272° (W) 2,330 1.2 -21.6°
Reaches altitude 10° 21:05:12 10° 257° (WSW) 1,469 -0.3 -21.9°
Enters shadow 21:07:13 21° 221° (SW) 969 -1.8 -22.1°
